sat.trackr.live / text

‹ back to catalog

STARLINK-37841

NORAD 69951 · 2026-157J

PAYLOAD ACTIVE UNKNOWN

§ Identity

Operator
Country
US
Launch date
2026-07-09
Launch site
AFETR
Launch vehicle
Mass (kg)
RCS (m²)

Purposes: comms

External: N2YO · Heavens-Above · Gunter

§ Orbital elements

Epoch: 2026-09-19T22:27:09.315072Z

Period
93.85 min
Inclination
53.1612°
Eccentricity
0.0000742
Mean motion
15.34409629 rev/d
Perigee alt
462.2 km
Apogee alt
463.2 km
Semi-major
6,840.8 km
B*
4.7258e-4
RAAN
336.5553°
Arg perigee
83.6984°
Mean anomaly
276.4103°
Rev number
1,128

§ Raw data

STARLINK-378411 69951U 26157J   26262.93552448  .00015629  00000+0  47258-3 0  99902 69951  53.1612 336.5553 0000742  83.6984 276.4103 15.34409629 11289

JSON: /api/v1/satellites/69951 · /tle

For live sub-satellite position, see the globe view (requires WebGL).

§ Visibility from observer

Set your observer location to see the next 7 days of passes ≥ 10°. The values pass through the URL so the page stays shareable.

No JS? Fill the form by hand. The geolocation button needs JavaScript.